WESTFORD NEEDLES, 2796

Orbit data source: Space-Track

WESTFORD NEEDLES, 2796 is space debris in LEO originally from a launch on Thu, 09 May 1963 UTC launched from the Air Force Western Test Range (AFWTR). Debris objects in space refer to the collection of defunct objects orbiting the Earth. Examples of debris include non-operational satellites, rocket bodies, and fragments generated from explosions, collisions, or faulty payload assembly.

Loading next visibility...
WESTFORD NEEDLES details
Identifier
2796, 1963-014AQ
Orbit
LEO
Last TLE update2 days ago
Origin
Flag of USUSAF SSD (US)
ManufacturerUnknown
MissionSpacecraft
Bus & MotorUnknown
MassUnknown
Launch date (UTC)
1963-05-09 (62 years ago)
Launch vehicleUnknown
Launch site
Air Force Western Test Range (AFWTR)
Object type
Payload
Rocket body
Debris
Shape & HBRUnknown
Radar Cross SectionMedium (>0.1 m² and <1 m²)

Expand to show TLE details & history

TLE from 2 days ago
0 WESTFORD NEEDLES
1 02796U 63014AQ  24354.39587638  .00000053  00000-0  20831-1 0  9998
2 02796  87.2535 141.3414 0390847  32.7365 329.7084  8.67969478877774
Epoch: 2024-12-19T09:30Z
Definitive object data (Epoch: 2024-12-19T09:30:03.719Z)
Latitude0.00003°
Longitude-89.65044°
Altitude3,292.081 km
Speed6.527 km/s
True Right ascension09h 25m 21s
True Declination0° 00' 00"
Sunlit
Object was in daylight at TLE epoch
Visualization TLE readout
Latitude66.33595°
Longitude83.88082°
Altitude3,572.117 km
Speed6.355 km/s
Apparent Right ascension22h 10m 32s
Apparent Declination30° 24' 20"
Sunlit
Object is in daylight
Visualization observer readout
Local Sidereal Time11:08:15
Azimuth13.091° NNE
Elevation-18.414°
Doppler factor1
Orbital elements
Apogee altitude4,012.008 km
Perigee altitude3,230.367 km
Semi-major axis9,999.324 km
Eccentricity0.0390847
Inclination87.2535°
RAAN141.3414°
Arg. of periapsis32.7365°
True anomaly327.35066°
Mean anomaly329.7084°
Eccentric anomaly328.53964°
Mean motion2.17064 °/min
BSTAR0.020831
Orbital period165.85 mins
Loading maneuver chart data...

WESTFORD NEEDLES Visibility forecast

Observer location: undefined°, undefined

Span
Click to sort rows by Start time (UTC) header in descending order
Start Az.
Max El. time (UTC)
Max El. Az.
Max El.
End time (UTC)
End Az.
36 mins2024-12-21 20:18:30.450Z4.78° NNE2024-12-21 20:35:30.450Z74.475° E35.598°2024-12-21 20:54:30.450Z146.613° SSE
34 mins2024-12-21 23:06:30.450Z350.532° N2024-12-21 23:21:30.450Z285.766° WNW39.525°2024-12-21 23:40:30.450Z211.359° SW
7 mins2024-12-22 06:59:30.450Z59.478° ENE2024-12-22 07:02:30.450Z48.148° ENE11.543°2024-12-22 07:06:30.450Z33.457° NE
31 mins2024-12-22 09:27:30.450Z157.24° SSE2024-12-22 09:42:30.450Z77.487° E42.119°2024-12-22 09:58:30.450Z5.882° NNE
|